{"data":{"norad_id":65044,"intl_designator":"2025-162B","name":"HULIANWANG DIGUI-41","alt_names":[],"object_type":"PAYLOAD","status":"ACTIVE","operator":null,"country":"PRC","launch_date":"2025-07-30","launch_site_code":"WSC","launch_vehicle":null,"mission":null,"orbit_class":"UNKNOWN","rcs_meters":null,"size_class":null,"mass_kg":null,"dimensions":null,"purposes":[],"wikipedia_slug":null,"has_3d_model":false,"image_url":null,"decayed_at":null,"tle_current":{"epoch":"2026-09-21T12:54:20.487168Z","epoch_age_seconds":78555,"freshness":"FRESH","line1":"1 65044U 25162B   26264.53773712 -.00000078  00000+0  98196-4 0  9992","line2":"2 65044  50.0001 280.3041 0000784 289.0607  71.0180 13.29326342 56177","mean_motion":13.29326342,"eccentricity":7.84e-5,"inclination_deg":50.0001,"raan_deg":280.3041,"arg_perigee_deg":289.0607,"mean_anomaly_deg":71.018,"bstar":9.8196e-5,"rev_number":5617,"period_min":108.32554463891,"perigee_km":1148.7151293061,"apogee_km":1149.8954322557,"semimajor_km":7527.4422807809,"source":"CELESTRAK","updated_at":"2026-09-22T09:00:30.090217Z"}}}